Date,TemperatureHighF,TemperatureAvgF,TemperatureLowF,DewpointHighF,DewpointAvgF,DewpointLowF,HumidityHigh,HumidityAvg,HumidityLow,PressureMaxIn,PressureMinIn,WindSpeedMaxMPH,WindSpeedAvgMPH,GustSpeedMaxMPH,PrecipitationSumIn
2013-1-1,42,35,24,22,14,6,80,45,27,30.36,30.27,8,2,0,0.00
2013-1-2,54,41,31,24,11,5,61,32,15,30.35,30.18,7,2,0,0.00
2013-1-3,53,38,28,14,11,4,55,35,15,30.35,30.22,8,1,0,0.00
2013-1-4,54,39,27,14,8,-2,48,31,10,30.39,30.29,6,1,0,0.00
2013-1-5,52,39,26,14,9,1,57,33,13,30.39,30.20,10,2,0,0.00
2013-1-6,43,37,34,33,30,11,87,76,31,30.19,30.06,12,4,0,0.10
2013-1-7,45,35,30,37,30,26,87,84,71,30.31,30.14,10,3,0,0.03
2013-1-8,66,45,29,34,27,22,84,54,23,30.34,30.24,5,1,0,0.01
2013-1-9,64,51,41,37,29,26,85,47,25,30.28,29.94,15,2,0,0.00
2013-1-10,40,31,28,37,25,20,87,78,69,30.16,29.86,22,10,0,0.02
2013-1-11,30,28,25,23,21,16,79,73,66,30.26,30.16,16,8,0,0.00
2013-1-12,35,26,17,25,19,12,83,73,61,30.31,30.20,12,2,0,0.00
2013-1-13,35,25,16,23,15,3,80,68,38,30.32,30.20,11,2,0,0.00
2013-1-14,39,28,17,5,-1,-4,50,30,20,30.50,30.31,7,2,0,0.00
2013-1-15,48,35,22,17,8,-1,44,33,22,30.60,30.49,9,2,0,0.00
2013-1-16,56,44,32,20,15,9,56,33,20,30.53,30.36,13,2,0,0.00
2013-1-17,58,51,43,11,3,-3,27,15,9,30.37,30.25,11,3,0,0.00
2013-1-18,60,52,44,3,0,-5,18,12,7,30.27,30.18,9,3,0,0.00
2013-1-19,61,52,44,3,-4,-12,18,10,5,30.31,30.20,13,3,0,0.00
2013-1-20,62,46,28,6,-1,-12,39,18,5,30.30,30.19,6,2,0,0.00
2013-1-21,64,48,34,6,-3,-15,30,15,4,30.25,30.18,8,2,0,0.00
2013-1-22,64,52,34,8,3,-5,30,14,6,30.23,30.13,9,2,0,0.00
2013-1-23,59,54,49,31,10,3,49,18,13,30.14,30.06,11,3,0,0.00
2013-1-24,54,48,46,48,42,27,88,80,41,30.22,30.04,12,2,0,0.25
2013-1-25,52,49,47,44,43,40,86,78,69,30.22,30.03,7,1,0,0.09
2013-1-26,49,46,44,46,43,39,90,88,82,30.02,29.94,11,4,0,0.08
2013-1-27,45,36,33,40,31,27,88,82,75,30.13,29.97,14,6,0,0.01
2013-1-28,35,33,32,27,26,24,81,76,65,30.32,30.13,15,6,0,0.00
2013-1-29,44,36,30,34,29,25,87,78,59,30.38,30.29,15,6,0,0.00
2013-1-30,62,47,30,34,28,25,86,50,28,30.43,30.33,10,2,0,0.00
2013-1-31,65,46,32,31,27,25,77,54,22,30.35,30.24,8,1,0,0.00
2013-2-1,67,46,32,36,27,23,75,52,21,30.32,30.21,8,1,0,0.00
2013-2-2,62,53,40,40,28,21,76,41,23,30.32,30.22,7,1,0,0.01
2013-2-3,58,48,38,40,35,27,82,62,41,30.23,30.10,11,2,0,0.00
2013-2-4,67,46,30,38,28,21,79,55,18,30.22,30.11,10,1,0,0.00
2013-2-5,64,46,33,41,30,23,87,58,23,30.15,30.00,14,4,0,0.00
2013-2-6,48,40,27,39,34,23,89,82,64,30.22,30.04,11,4,0,0.01
2013-2-7,54,36,24,35,26,11,86,71,18,30.22,30.01,10,3,0,0.00
2013-2-8,37,33,31,33,29,26,91,84,79,30.01,29.89,12,6,0,0.14
2013-2-9,39,33,30,31,25,17,87,72,57,30.17,29.99,16,6,0,0.02
2013-2-10,44,34,25,29,22,16,74,62,46,30.18,30.07,10,2,0,0.00
2013-2-11,50,36,24,21,17,12,80,50,22,30.34,30.15,8,1,0,0.00
2013-2-12,54,36,22,24,18,10,78,52,21,30.45,30.34,10,1,0,0.00
2013-2-13,62,40,25,31,23,14,82,58,16,30.42,30.28,11,1,0,0.00
2013-2-14,64,48,30,25,21,19,77,41,18,30.32,30.23,10,1,0,0.00
2013-2-15,64,54,42,23,17,8,48,25,12,30.32,30.26,8,2,0,0.00
2013-2-16,64,52,34,29,14,5,58,25,10,30.31,30.05,8,1,0,0.00
2013-2-17,58,46,32,33,28,19,69,50,32,30.05,29.97,16,4,0,0.00
2013-2-18,64,45,28,35,27,18,82,53,20,30.05,29.92,10,2,0,0.00
2013-2-19,42,36,28,35,31,25,88,81,62,29.93,29.70,13,5,0,0.00
2013-2-20,31,29,26,27,25,22,88,86,80,30.14,29.71,15,7,0,0.05
2013-2-21,41,35,28,32,28,24,84,78,68,30.25,30.09,10,4,0,0.10
2013-2-22,48,36,22,34,26,18,85,69,43,30.33,30.23,9,2,0,0.00
2013-2-23,46,39,35,34,30,26,80,71,62,30.29,30.07,16,7,0,0.00
2013-2-24,52,40,29,31,12,0,84,39,13,30.31,30.16,9,1,0,0.00
2013-2-25,56,40,24,26,18,10,64,44,22,30.33,30.18,10,3,0,0.00
2013-2-26,58,41,30,37,28,22,78,62,25,30.27,30.14,10,2,0,0.00
2013-2-27,60,44,30,27,15,4,81,37,11,30.44,30.26,7,1,0,0.00
2013-2-28,60,44,27,28,23,12,67,47,17,30.53,30.43,9,1,0,0.00
2013-3-1,69,50,30,25,20,13,73,38,13,30.52,30.33,9,1,0,0.00
2013-3-2,72,56,39,31,23,16,48,31,12,30.36,30.11,8,2,0,0.00
2013-3-3,59,52,46,36,30,20,66,45,29,30.14,29.94,15,6,0,0.00
2013-3-4,59,49,39,42,37,27,78,63,47,30.09,30.00,11,3,0,0.00
2013-3-5,68,51,36,35,24,12,72,39,15,30.09,29.95,15,2,0,0.00
2013-3-6,48,42,35,38,35,27,84,76,59,30.04,29.96,15,4,0,0.05
2013-3-7,52,43,38,38,34,27,87,73,51,30.00,29.82,11,2,0,0.00
2013-3-8,41,35,31,33,31,27,88,84,71,30.08,29.75,11,4,0,0.30
2013-3-9,38,36,31,35,32,27,89,86,81,30.40,30.09,14,5,0,0.03
2013-3-10,64,44,28,39,27,12,86,58,15,30.46,30.32,9,1,0,0.01
2013-3-11,72,47,30,42,28,10,79,56,11,30.33,30.16,10,2,0,0.00
2013-3-12,73,51,33,43,23,8,72,45,8,30.22,30.12,8,1,0,0.00
2013-3-13,78,57,37,32,23,11,64,34,8,30.24,30.13,8,1,0,0.00
2013-3-14,83,60,39,48,32,21,60,39,11,30.18,30.09,10,2,0,0.00
2013-3-15,70,57,48,52,45,34,78,65,47,30.11,29.97,13,4,0,0.00
2013-3-16,64,55,46,48,44,40,86,68,49,30.02,29.96,14,7,0,0.00
2013-3-17,62,52,43,42,38,34,79,59,43,30.08,29.97,16,7,0,0.00
2013-3-18,63,52,44,38,35,31,75,54,35,30.12,30.03,10,4,0,0.00
2013-3-19,66,54,44,37,32,28,66,45,28,30.14,30.06,16,4,0,0.00
2013-3-20,63,52,43,43,39,31,80,63,36,30.11,30.02,19,7,0,0.00
2013-3-21,55,49,46,45,42,38,84,76,63,30.02,29.92,15,7,0,0.00
2013-3-22,55,46,38,39,35,32,84,67,45,30.07,29.94,11,6,0,0.00
2013-3-23,61,47,34,35,28,21,79,51,30,30.14,30.05,10,3,0,0.00
2013-3-24,67,52,38,34,27,20,55,40,22,30.12,29.99,12,3,0,0.00
2013-3-25,68,53,42,35,27,17,54,37,24,30.02,29.92,11,3,0,0.00
2013-3-26,65,54,45,37,31,25,60,42,25,29.96,29.89,14,4,0,0.00
2013-3-27,64,53,46,42,38,34,74,58,38,30.00,29.90,11,5,0,0.00
2013-3-28,65,54,45,45,41,35,85,64,38,30.10,29.99,18,4,0,0.00
2013-3-29,75,55,36,44,35,22,82,54,14,30.13,30.04,11,1,0,0.00
2013-3-30,74,58,40,39,33,24,62,41,19,30.09,29.96,11,2,0,0.00
2013-3-31,57,50,47,45,43,38,87,76,55,30.05,29.98,9,3,0,0.05
2013-4-1,56,48,43,42,39,36,84,72,50,30.16,30.05,13,5,0,0.01
2013-4-2,62,50,44,46,42,38,86,73,54,30.15,30.07,12,4,0,0.00
2013-4-3,78,56,36,45,37,26,83,55,15,30.15,30.02,13,2,0,0.00
2013-4-4,64,55,46,47,42,36,79,63,39,30.09,29.99,16,4,0,0.00
2013-4-5,54,51,48,46,44,40,83,76,65,30.12,30.02,12,7,0,0.00
2013-4-6,58,49,45,44,42,39,86,75,53,30.17,30.09,11,6,0,0.00
2013-4-7,61,52,47,42,41,38,82,68,48,30.11,29.82,16,8,0,0.00
2013-4-8,50,42,35,41,35,27,86,76,64,29.93,29.63,22,9,0,0.03
2013-4-9,56,44,34,34,27,23,79,54,29,30.17,29.93,11,5,0,0.00
2013-4-10,69,54,32,32,26,20,68,37,18,30.25,30.11,12,3,0,0.00
2013-4-11,68,56,48,42,37,30,71,49,35,30.11,29.79,13,4,0,0.00
2013-4-12,73,58,46,47,43,38,78,59,36,29.89,29.80,9,3,0,0.00
2013-4-13,70,60,49,45,36,18,71,45,15,29.87,29.74,14,6,0,0.00
2013-4-14,64,55,46,45,39,28,81,57,40,29.79,29.69,20,9,0,0.00
2013-4-15,57,48,38,41,34,26,86,61,35,29.82,29.71,20,10,0,0.00
2013-4-16,48,39,31,30,25,21,78,58,36,30.09,29.80,23,10,0,0.00
2013-4-17,55,44,32,24,21,17,64,43,22,30.29,30.10,12,4,0,0.00
2013-4-18,67,48,28,20,13,2,62,30,9,30.34,30.24,11,2,0,0.00
2013-4-19,71,53,31,27,19,4,56,31,8,30.29,30.10,13,3,0,0.00
2013-4-20,76,60,48,41,33,22,54,38,13,30.11,29.96,12,4,0,0.00
2013-4-21,77,63,50,37,33,24,49,35,15,30.02,29.93,17,4,0,0.00
2013-4-22,77,65,52,37,31,20,48,29,15,29.97,29.81,15,5,0,0.00
2013-4-23,77,64,49,38,23,7,55,28,7,29.92,29.81,12,2,0,0.00
2013-4-24,79,61,41,42,23,2,62,32,6,29.86,29.76,8,2,0,0.00
2013-4-25,68,57,46,45,41,38,75,57,39,30.09,29.84,15,4,0,0.00
2013-4-26,75,60,48,46,43,39,75,55,36,30.18,30.09,11,4,0,0.00
2013-4-27,80,65,52,44,41,38,65,45,24,30.18,30.04,11,4,0,0.00
2013-4-28,82,68,55,46,41,34,62,39,24,30.04,29.86,11,4,0,0.00
2013-4-29,81,68,55,45,35,24,43,31,22,29.89,29.72,14,5,0,0.00
2013-4-30,77,66,57,45,41,34,57,41,26,29.77,29.67,16,7,0,0.00
2013-5-1,80,64,44,38,0,-100,58,20,1,30.13,29.78,9,2,0,0.00
2013-5-2,77,63,46,1,-33,-100,15,4,1,30.22,30.10,17,3,0,0.00
2013-5-3,83,62,38,26,-4,-100,29,14,1,30.13,29.84,16,2,0,0.00
2013-5-4,80,68,52,34,27,15,47,24,9,29.83,29.55,13,4,0,0.00
2013-5-5,70,56,46,35,28,16,62,37,13,29.81,29.58,13,1,0,0.00
2013-5-6,64,53,45,45,37,32,85,57,32,29.94,29.80,10,2,0,0.02
2013-5-7,54,48,44,43,41,36,86,76,61,30.06,29.91,11,5,0,0.07
2013-5-8,61,53,45,46,43,38,80,70,55,30.11,30.05,10,4,0,0.00
2013-5-9,67,55,50,49,46,44,83,71,48,30.12,30.05,13,4,0,0.01
2013-5-10,77,64,53,51,48,45,77,58,39,30.14,30.06,13,5,0,0.00
2013-5-11,89,72,54,51,42,25,73,42,10,30.12,30.00,11,2,0,0.00
2013-5-12,87,74,62,52,47,41,61,40,21,30.07,29.93,16,4,0,0.00
2013-5-13,88,74,57,45,41,36,56,32,18,29.99,29.87,12,4,0,0.00
2013-5-14,80,69,58,43,36,24,49,31,14,29.90,29.79,19,5,0,0.00
2013-5-15,79,67,58,46,39,29,58,38,20,29.93,29.86,16,6,0,0.00
2013-5-16,67,58,51,42,39,37,72,51,38,29.91,29.85,22,7,0,0.00
2013-5-17,66,57,50,44,41,36,78,57,39,29.99,29.87,13,7,0,0.00
2013-5-18,69,58,47,38,32,25,64,40,23,30.05,29.99,18,6,0,0.00
2013-5-19,72,61,50,41,35,25,60,39,26,30.04,29.95,15,5,0,0.00
2013-5-20,86,67,45,39,28,10,70,29,6,30.02,29.90,8,2,0,0.00
2013-5-21,82,69,56,39,30,18,45,25,11,29.92,29.74,16,5,0,0.00
2013-5-22,62,53,44,39,32,22,62,46,31,29.85,29.74,15,7,0,0.00
2013-5-23,63,52,41,25,20,15,43,30,17,29.98,29.84,18,7,0,0.00
2013-5-24,69,56,44,33,28,22,49,35,24,29.98,29.91,15,4,0,0.00
2013-5-25,72,60,48,32,27,3,52,32,7,29.95,29.91,18,5,0,0.00
2013-5-26,67,57,47,40,37,32,67,48,33,30.03,29.93,17,7,0,0.00
2013-5-27,68,58,48,44,40,33,80,54,33,30.03,29.91,15,7,0,0.00
2013-5-28,63,55,50,50,47,43,84,74,57,29.92,29.84,15,7,0,0.00
2013-5-29,71,60,51,48,46,41,84,62,35,29.91,29.79,20,7,0,0.00
2013-5-30,76,63,49,46,42,39,72,49,29,29.91,29.85,13,6,0,0.00
2013-5-31,79,67,53,41,37,27,51,35,24,29.94,29.88,11,4,0,0.00
2013-6-1,94,72,51,44,33,-2,63,32,3,29.93,29.76,10,1,0,0.00
2013-6-2,93,75,54,42,35,22,44,26,8,29.76,29.61,14,3,0,0.00
2013-6-3,85,73,60,46,43,36,51,35,22,29.73,29.62,14,4,0,0.00
2013-6-4,82,71,59,50,47,42,57,43,30,29.85,29.72,12,4,0,0.00
2013-6-5,84,72,60,52,49,46,61,46,30,29.87,29.79,11,3,0,0.00
2013-6-6,89,75,62,54,51,47,62,45,29,29.85,29.74,11,2,0,0.03
2013-6-7,94,76,63,56,52,48,63,45,23,29.79,29.68,12,3,0,0.00
2013-6-8,102,84,67,56,40,-16,53,30,1,29.71,29.61,17,6,0,0.00
2013-6-9,94,80,64,51,3,-100,56,20,1,29.70,29.64,15,5,0,0.00
2013-6-10,76,66,52,47,38,9,64,38,11,29.89,29.66,16,6,0,0.00
2013-6-11,87,73,57,48,38,21,50,31,9,29.91,29.82,17,6,0,0.00
2013-6-12,86,74,58,50,41,30,57,32,16,29.86,29.80,18,6,0,0.00
2013-6-13,76,66,57,40,29,22,48,27,14,29.94,29.85,19,11,0,0.00
2013-6-14,80,68,54,37,31,25,40,27,15,29.92,29.79,15,6,0,0.00
2013-6-15,84,70,56,36,27,5,42,22,6,29.88,29.80,16,7,0,0.00
2013-6-16,80,68,56,39,30,21,45,26,12,29.98,29.88,18,11,0,0.00
2013-6-17,79,68,56,39,36,33,50,32,19,29.98,29.91,18,11,0,0.00
2013-6-18,76,65,53,43,39,34,66,41,22,29.92,29.81,17,12,0,0.00
2013-6-19,68,58,46,42,36,33,70,47,28,29.95,29.83,19,12,0,0.00
2013-6-20,73,62,49,36,33,29,58,36,20,29.95,29.88,18,10,0,0.00
2013-6-21,76,65,53,37,34,29,52,34,18,29.91,29.84,21,11,0,0.00
2013-6-22,81,69,57,38,33,27,46,28,16,29.88,29.79,23,10,0,0.00
2013-6-23,76,67,59,43,36,29,49,33,20,29.80,29.70,21,11,0,0.00
2013-6-24,72,62,53,51,48,42,78,61,45,29.88,29.73,22,11,0,0.00
2013-6-25,80,68,55,54,51,47,82,57,35,29.95,29.87,19,10,0,0.00
2013-6-26,85,73,61,58,55,52,76,55,38,29.97,29.90,15,8,0,0.00
2013-6-27,91,77,64,58,56,54,73,51,32,29.99,29.94,15,7,0,0.00
2013-6-28,92,80,68,58,55,52,62,44,29,29.99,29.84,16,7,0,0.00
2013-6-29,95,83,71,55,51,47,50,35,20,29.87,29.74,14,7,0,0.00
2013-6-30,100,84,72,52,49,46,40,30,19,29.77,29.67,16,6,0,0.00
2013-7-1,98,84,73,53,50,44,42,31,17,29.79,29.70,12,5,0,0.00
2013-7-2,100,84,66,53,47,40,53,30,13,29.84,29.78,17,6,0,0.00
2013-7-3,94,83,74,52,46,41,40,28,19,29.82,29.67,16,7,0,0.00
2013-7-4,97,85,73,53,49,44,42,30,19,29.72,29.60,19,8,0,0.00
2013-7-5,95,83,73,55,50,34,50,33,14,29.65,29.58,17,7,0,0.00
2013-7-6,92,78,68,41,34,25,37,21,10,29.69,29.62,14,4,0,0.00
2013-7-7,93,81,67,41,31,20,35,19,7,29.77,29.67,20,6,0,0.00
2013-7-8,93,78,62,39,30,16,37,20,6,29.89,29.76,17,5,0,0.00
2013-7-9,94,82,68,41,27,14,26,15,6,29.93,29.86,17,6,0,0.00
2013-7-10,93,81,73,44,37,24,32,22,9,29.89,29.79,14,5,0,0.00
2013-7-11,85,76,68,47,43,34,42,31,22,29.84,29.76,9,4,0,0.00
2013-7-12,88,76,64,41,36,27,38,25,12,29.84,29.77,15,6,0,0.00
2013-7-13,90,78,64,41,35,26,41,23,11,29.87,29.81,18,8,0,0.00
2013-7-14,89,78,66,35,30,20,27,18,8,29.88,29.79,18,7,0,0.00
2013-7-15,90,77,65,40,31,25,29,19,11,29.82,29.67,17,6,0,0.00
2013-7-16,85,73,56,36,28,19,33,20,11,29.92,29.75,18,6,0,0.00
2013-7-17,87,73,60,46,41,31,53,34,20,29.98,29.91,15,7,0,0.00
2013-7-18,89,74,61,46,39,26,39,29,21,29.98,29.86,13,6,0,0.00
2013-7-19,92,78,65,43,40,37,39,27,16,29.89,29.75,14,5,0,0.00
2013-7-20,97,81,65,45,40,35,38,24,12,29.78,29.66,14,5,0,0.00
2013-7-21,94,81,66,53,45,38,40,29,17,29.80,29.67,14,4,0,0.00
2013-7-22,89,77,69,60,54,49,70,46,31,29.87,29.74,14,4,0,0.01
2013-7-23,88,76,63,54,50,48,63,43,27,29.91,29.84,13,5,0,0.00
2013-7-24,89,78,66,54,50,46,66,40,24,29.89,29.81,19,7,0,0.00
2013-7-25,91,79,68,49,47,45,47,33,22,29.92,29.84,17,8,0,0.00
2013-7-26,88,78,69,57,52,46,59,42,29,29.96,29.90,12,5,0,0.00
2013-7-27,92,79,69,53,50,48,51,38,24,29.92,29.74,14,5,0,0.00
2013-7-28,91,79,69,48,45,37,47,32,18,29.77,29.68,20,7,0,0.00
2013-7-29,90,77,61,48,44,35,56,34,14,29.89,29.74,18,6,0,0.00
2013-7-30,91,76,60,50,46,40,55,37,17,29.96,29.89,13,6,0,0.00
2013-7-31,76,62,54,47,44,41,63,52,31,29.97,29.95,5,1,0,0.00
2013-8-2,80,73,64,30,26,17,24,18,12,29.89,29.85,11,7,0,0.00
2013-8-3,88,74,59,30,20,-3,26,15,3,29.90,29.84,15,6,0,0.00
2013-8-4,89,75,61,34,27,13,31,19,6,29.90,29.83,14,6,0,0.00
2013-8-5,87,73,61,40,36,29,36,26,14,29.90,29.83,13,6,0,0.00
2013-8-6,88,74,61,43,38,27,43,29,12,29.92,29.84,17,7,0,0.00
2013-8-7,79,69,58,45,40,32,54,36,21,29.96,29.90,17,9,0,0.00
2013-8-8,80,67,55,48,41,27,74,42,15,29.93,29.85,16,8,0,0.00
2013-8-9,82,68,57,43,41,35,56,40,21,29.90,29.84,15,6,0,0.00
2013-8-10,79,68,57,46,43,39,63,42,28,29.95,29.90,14,8,0,0.00
2013-8-11,81,70,58,47,44,38,60,41,27,29.94,29.86,18,7,0,0.00
2013-8-12,84,72,60,45,42,36,53,36,22,29.92,29.86,14,7,0,0.00
2013-8-13,88,74,61,46,41,35,50,32,19,29.92,29.85,24,6,0,0.00
2013-8-14,90,76,65,44,39,28,41,28,16,29.90,29.81,14,6,0,0.00
2013-8-15,91,77,59,43,38,28,47,26,14,29.89,29.83,16,5,0,0.00
2013-8-16,91,78,66,48,41,26,37,27,19,29.89,29.84,13,5,0,0.00
2013-8-17,91,78,66,46,41,33,41,28,17,29.89,29.76,15,6,0,0.00
2013-8-18,96,79,58,54,43,32,54,31,13,29.83,29.71,18,5,0,0.01
2013-8-19,93,79,67,54,50,42,51,38,21,29.83,29.70,21,9,0,0.00
2013-8-20,96,79,61,53,33,-6,62,28,2,29.81,29.74,19,4,0,0.00
2013-8-21,96,81,68,46,34,25,35,20,11,29.81,29.73,14,4,0,0.00
2013-8-22,94,80,66,47,37,20,39,25,7,29.82,29.72,20,4,0,0.00
2013-8-23,87,73,55,46,41,23,56,34,10,29.79,29.70,18,5,0,0.00
2013-8-24,86,72,53,45,40,34,59,35,17,29.84,29.74,15,5,0,0.00
2013-8-25,86,70,51,44,37,14,59,33,8,29.91,29.82,15,4,0,0.00
2013-8-26,86,70,54,58,48,37,67,47,29,29.93,29.82,15,5,0,0.00
2013-8-27,86,72,60,58,54,50,74,54,34,29.86,29.73,14,4,0,0.00
2013-8-28,92,74,59,53,49,45,72,44,20,29.88,29.77,14,4,0,0.00
2013-8-29,89,74,59,51,48,43,63,41,23,29.97,29.88,14,4,0,0.00
2013-8-30,90,76,62,54,52,49,68,44,28,29.97,29.86,14,5,0,0.00
2013-8-31,88,77,68,53,50,47,54,40,26,29.90,29.80,14,6,0,0.00
2013-9-1,87,75,67,58,54,50,67,49,31,29.86,29.78,14,4,0,0.00
2013-9-2,87,76,67,56,54,51,63,48,29,29.85,29.77,15,5,0,0.00
2013-9-3,86,73,61,59,55,53,80,56,32,29.89,29.82,17,4,0,0.00
2013-9-4,89,73,58,56,50,47,79,49,26,29.94,29.85,15,4,0,0.00
2013-9-5,88,73,58,53,48,44,72,45,22,29.91,29.84,17,4,0,0.00
2013-9-6,91,74,56,53,46,34,77,42,14,29.90,29.79,16,4,0,0.00
2013-9-7,91,75,56,42,33,21,51,26,8,29.88,29.80,16,5,0,0.00
2013-9-8,90,77,66,41,34,24,34,21,13,29.82,29.69,13,5,0,0.00
2013-9-9,89,76,65,46,42,37,49,31,19,29.77,29.66,15,5,0,0.00
2013-9-10,89,76,67,42,39,36,39,28,17,29.79,29.68,13,5,0,0.00
2013-9-11,82,70,61,45,41,37,45,35,24,29.90,29.79,15,6,0,0.00
2013-9-12,82,70,59,46,41,36,52,38,19,29.91,29.82,15,6,0,0.00
2013-9-13,85,72,60,48,45,40,55,40,26,29.87,29.70,14,5,0,0.00
2013-9-14,89,74,56,50,48,44,66,42,23,29.74,29.65,12,4,0,0.00
2013-9-15,92,74,57,53,45,25,68,41,9,29.78,29.69,15,4,0,0.00
2013-9-16,92,71,54,49,39,19,73,40,7,29.80,29.71,17,3,0,0.00
2013-9-17,77,65,52,49,44,38,68,48,33,29.79,29.71,20,6,0,0.00
2013-9-18,74,61,51,45,42,39,68,51,33,29.86,29.76,14,7,0,0.00
2013-9-19,86,65,44,42,31,11,75,38,6,29.88,29.78,15,3,0,0.00
2013-9-20,87,68,49,39,32,18,50,30,8,29.81,29.74,15,5,0,0.00
2013-9-21,71,60,51,48,42,35,79,53,37,29.80,29.71,21,9,0,0.01
2013-9-22,59,51,47,43,40,38,77,66,48,30.02,29.78,24,9,0,0.00
2013-9-23,80,59,40,44,39,25,83,53,13,30.06,29.95,11,3,0,0.00
2013-9-24,81,63,44,42,35,25,69,42,13,29.99,29.82,17,5,0,0.00
2013-9-25,60,54,48,44,39,33,78,59,40,29.82,29.70,22,11,0,0.00
2013-9-26,57,49,43,38,33,28,79,56,34,30.00,29.73,20,10,0,0.00
2013-9-27,68,53,42,33,29,23,63,42,19,30.12,30.00,12,4,0,0.00
2013-9-28,77,57,36,29,22,10,65,33,8,30.15,30.06,13,3,0,0.00
2013-9-29,77,62,44,27,20,5,44,23,6,30.13,30.03,17,7,0,0.00
2013-9-30,74,62,53,45,38,24,66,42,26,30.05,29.90,19,9,0,0.00
2013-10-1,74,61,52,49,46,42,75,59,41,29.95,29.87,16,7,0,0.00
2013-10-2,70,60,52,51,45,37,83,61,33,29.92,29.87,15,8,0,0.00
2013-10-3,62,54,43,42,34,29,62,49,32,29.98,29.88,23,10,0,0.00
2013-10-4,66,57,40,30,8,-2,65,17,7,30.18,29.98,28,14,0,0.00
2013-10-5,71,62,52,16,8,-4,24,13,6,30.25,30.17,23,13,0,0.00
2013-10-6,77,65,46,12,0,-22,24,9,2,30.17,30.01,23,10,0,0.00
2013-10-7,78,60,44,22,8,-11,28,15,3,30.04,29.91,13,3,0,0.00
2013-10-8,72,61,52,28,24,15,37,26,12,29.91,29.68,14,7,0,0.00
2013-10-9,52,46,40,37,33,25,83,63,37,29.80,29.57,13,5,0,0.38
2013-10-10,59,48,39,41,36,31,83,65,44,30.05,29.80,14,6,0,0.00
2013-10-11,69,54,39,38,34,28,79,52,22,30.09,29.99,12,4,0,0.00
2013-10-12,68,53,37,39,33,25,76,50,22,30.03,29.92,14,4,0,0.00
2013-10-13,59,51,44,37,34,32,67,54,40,30.09,29.89,16,6,0,0.00
2013-10-14,68,52,36,33,28,22,83,46,19,30.17,30.05,13,4,0,0.00
2013-10-15,69,54,37,31,23,17,63,34,15,30.10,30.02,19,5,0,0.00
2013-10-16,69,58,45,24,17,7,41,22,9,30.15,30.05,15,6,0,0.00
2013-10-17,70,57,45,31,26,19,45,32,20,30.10,29.99,14,5,0,0.00
2013-10-18,75,56,39,29,19,3,63,32,6,30.11,30.03,15,4,0,0.00
2013-10-19,80,57,38,28,16,-30,46,26,1,30.15,30.05,13,3,0,0.00
2013-10-20,75,58,39,29,21,13,46,27,10,30.08,29.94,10,3,0,0.00
2013-10-21,77,57,38,22,12,3,49,23,6,30.05,29.98,20,4,0,0.00
2013-10-22,77,60,45,19,15,7,32,19,7,30.05,29.94,21,4,0,0.00
2013-10-23,76,57,43,33,22,8,48,30,7,29.98,29.90,18,3,0,0.00
2013-10-24,73,59,45,32,28,21,47,32,14,30.09,29.96,11,4,0,0.00
2013-10-25,73,57,43,37,31,24,58,39,20,30.15,30.09,9,3,0,0.00
2013-10-26,78,58,40,28,19,5,54,28,6,30.20,30.07,13,3,0,0.00
2013-10-27,74,58,42,36,26,12,53,32,10,30.07,29.65,26,5,0,0.00
2013-10-28,53,45,41,38,34,30,83,68,50,29.90,29.63,19,12,0,0.11
2013-10-29,47,43,41,38,36,33,86,76,65,30.06,29.90,15,7,0,0.07
2013-10-30,56,45,36,39,35,30,80,69,48,30.18,30.06,9,3,0,0.00
2013-10-31,65,48,32,37,25,13,87,49,13,30.24,30.15,19,4,0,0.00
2013-11-1,69,55,38,25,22,19,50,30,15,30.23,30.10,18,6,0,0.00
2013-11-2,72,55,36,32,24,18,59,34,13,30.10,29.90,18,5,0,0.00
2013-11-3,57,48,41,40,35,31,79,63,46,29.94,29.86,21,8,0,0.00
2013-11-4,51,42,32,33,27,24,72,56,39,30.12,29.86,12,4,0,0.00
2013-11-5,56,47,28,24,10,1,78,28,12,30.32,30.12,19,7,0,0.00
2013-11-6,64,55,41,14,6,1,23,14,8,30.36,30.24,22,10,0,0.00
2013-11-7,69,56,41,23,17,12,41,22,12,30.25,30.08,18,5,0,0.00
2013-11-8,71,51,37,25,17,7,45,28,9,30.11,30.00,12,2,0,0.00
2013-11-9,73,53,36,19,4,-23,39,19,2,30.14,30.05,14,2,0,0.00
2013-11-10,69,55,44,13,10,5,29,18,8,30.16,30.10,22,5,0,0.00
2013-11-11,72,59,42,16,12,5,32,17,8,30.21,30.11,22,6,0,0.00
2013-11-12,71,60,43,29,14,1,49,19,7,30.26,30.16,17,4,0,0.00
2013-11-13,67,50,38,36,29,21,62,46,23,30.23,30.13,13,2,0,0.00
2013-11-14,73,54,38,36,28,18,62,43,12,30.16,29.83,12,4,0,0.00
2013-11-15,52,47,39,39,36,32,81,67,51,29.82,29.68,19,7,0,0.00
2013-11-16,56,46,38,35,32,26,82,61,34,29.96,29.76,19,10,0,0.00
2013-11-17,60,46,33,35,31,27,80,59,31,30.15,29.96,12,4,0,0.00
2013-11-18,60,48,37,38,34,30,80,60,41,30.18,30.08,13,4,0,0.00
2013-11-19,54,46,40,40,38,34,82,74,60,30.12,29.99,13,7,0,0.00
2013-11-20,58,49,43,45,40,37,84,73,54,30.01,29.86,11,6,0,0.01
2013-11-21,53,46,39,45,41,34,87,84,71,29.97,29.83,14,5,0,0.84
2013-11-22,44,42,40,35,33,30,81,71,64,30.05,29.95,17,9,0,0.01
2013-11-23,46,42,39,35,33,30,79,72,61,30.18,30.04,19,8,0,0.02
2013-11-24,53,44,33,35,32,28,82,64,42,30.30,30.17,8,4,0,0.00
2013-11-25,60,42,30,36,30,26,85,66,29,30.39,30.30,11,2,0,0.00
2013-11-26,60,53,37,31,27,23,74,38,25,30.35,30.12,23,10,0,0.00
2013-11-27,57,51,46,31,29,27,51,42,35,30.13,29.93,24,12,0,0.00
2013-11-28,55,49,46,30,29,27,52,46,38,30.11,29.94,24,11,0,0.00
2013-11-29,56,49,42,30,29,28,61,46,35,30.26,30.10,18,7,0,0.00
2013-11-30,61,46,34,34,29,24,74,55,25,30.34,30.21,11,2,0,0.00
2013-12-1,66,46,32,32,25,16,78,51,16,30.40,30.29,8,2,0,0.00
2013-12-2,64,49,34,28,22,16,64,38,16,30.33,29.95,17,6,0,0.00
2013-12-3,53,45,34,40,35,21,83,70,31,29.94,29.65,22,14,0,0.01
2013-12-4,40,30,20,25,20,14,79,67,52,30.11,29.79,16,5,0,0.00
2013-12-5,37,25,16,23,16,8,82,69,49,30.27,30.09,10,2,0,0.01
2013-12-6,43,27,14,12,5,-21,84,46,6,30.31,30.23,15,3,0,0.00
2013-12-7,37,31,26,31,23,12,87,72,48,30.22,30.02,22,10,0,0.11
2013-12-8,39,26,16,24,16,10,80,67,46,30.38,30.22,12,4,0,0.16
2013-12-9,35,32,28,11,2,-7,47,29,18,30.54,30.37,29,16,0,0.00
2013-12-10,47,37,28,12,4,-6,42,26,16,30.52,30.28,22,7,0,0.01
2013-12-11,49,43,32,12,9,3,43,25,18,30.36,30.29,19,10,0,0.00
2013-12-12,57,47,38,15,11,9,37,24,16,30.32,30.20,13,6,0,0.00
2013-12-13,53,42,30,22,16,10,63,37,23,30.39,30.19,11,5,0,0.00
2013-12-14,56,49,38,18,15,11,43,26,18,30.47,30.38,27,12,0,0.00
2013-12-15,65,55,43,18,12,6,32,19,11,30.43,30.27,16,8,0,0.00
2013-12-16,69,61,48,18,12,6,31,16,10,30.28,30.18,21,10,0,0.00
2013-12-17,63,63,61,13,7,5,15,11,10,30.21,30.19,13,9,0,0.00
2013-12-19,43,39,37,35,33,32,86,79,65,29.91,29.68,13,5,0,0.02
2013-12-20,46,36,28,35,30,23,87,79,59,30.08,29.90,10,2,0,0.00
2013-12-21,52,37,29,34,29,23,83,72,47,30.16,30.03,15,4,0,0.00
2013-12-22,57,44,31,30,26,23,78,53,31,30.40,30.16,13,4,0,0.00
2013-12-23,59,48,38,28,26,24,61,43,29,30.45,30.36,20,6,0,0.00
2013-12-24,67,50,31,31,24,19,75,41,16,30.39,30.27,15,5,0,0.00
2013-12-25,61,54,42,26,14,2,33,21,12,30.33,30.25,18,10,0,0.00
2013-12-26,63,53,39,6,-5,-16,25,10,4,30.34,30.24,15,6,0,0.00
2013-12-27,68,51,38,10,-14,-100,25,12,1,30.30,30.16,12,4,0,0.00
2013-12-28,62,49,36,23,7,-10,38,21,5,30.15,30.00,11,3,0,0.00
2013-12-29,58,48,37,7,1,-7,25,15,7,30.29,30.12,18,6,0,0.00
2013-12-30,66,47,33,11,1,-18,33,18,3,30.37,30.29,13,3,0,0.00
2013-12-31,64,49,35,17,7,1,32,19,9,30.31,30.16,12,4,0,0.00
2014-1-1,64,49,32,19,11,4,39,24,10,30.28,30.21,19,6,0,0.00
2014-1-2,64,51,40,22,20,18,43,31,18,30.25,30.10,18,5,0,0.00